IRIDIUM 55 [P]

Last updated on Thu Mar 21 2019 03:13:37 GMT+0000 (Coordinated Universal Time)

1 25272U 98019A 19078.46295796 .00281804 -12634-5 73063-3 0 9995 2 25272 86.6128 19.1306 0358607 166.2433 194.8921 15.35948269 98121

Satellite not in orbit